| time (UTC) | temp F | wind direction | speed knots | gust knots | rain 1hr in | rain 24hr in | rain mn in | humidity % | barometer mb |
| 20260504010005 | 54 | 198 | 0.9 | 3.5 | 0.00 | 0.00 | 0.00 | 45 | 1011.9 |
| 20260504004504 | 55 | 195 | 1.7 | 4.3 | 0.00 | 0.00 | 0.00 | 44 | 1011.8 |
| 20260504003005 | 56 | 227 | 1.7 | 8.7 | 0.00 | 0.00 | 0.00 | 43 | 1011.8 |
| 20260504000005 | 57 | 219 | 2.6 | 7.8 | 0.00 | 0.00 | 0.00 | 42 | 1011.8 |
| 20260503233005 | 58 | 254 | 2.6 | 7.8 | 0.00 | 0.00 | 0.00 | 41 | 1012.0 |
| 20260503231504 | 58 | 246 | 2.6 | 10.4 | 0.00 | 0.00 | 0.00 | 41 | 1012.1 |
| 20260503224504 | 58 | 228 | 3.5 | 11.3 | 0.00 | 0.00 | 0.00 | 39 | 1012.1 |
| 20260503221504 | 59 | 254 | 3.5 | 13.9 | 0.00 | 0.00 | 0.00 | 39 | 1012.2 |
| 20260503220005 | 59 | 265 | 4.3 | 11.3 | 0.00 | 0.00 | 0.00 | 38 | 1012.3 |
| 20260503214504 | 59 | 245 | 4.3 | 23.5 | 0.00 | 0.00 | 0.00 | 38 | 1012.2 |
| 20260503210005 | 60 | 205 | 3.5 | 12.2 | 0.00 | 0.00 | 0.00 | 38 | 1012.2 |
| 20260503203005 | 60 | 248 | 3.5 | 12.2 | 0.00 | 0.00 | 0.00 | 38 | 1012.4 |
| 20260503201504 | 60 | 244 | 4.3 | 13.0 | 0.00 | 0.00 | 0.00 | 36 | 1012.6 |
| 20260503200004 | 60 | 263 | 4.3 | 11.3 | 0.00 | 0.00 | 0.00 | 36 | 1012.7 |
| 20260503193005 | 61 | 245 | 4.3 | 11.3 | 0.00 | 0.00 | 0.00 | 35 | 1013.3 |
| 20260503191504 | 61 | 238 | 4.3 | 13.0 | 0.00 | 0.00 | 0.00 | 37 | 1013.4 |
| 20260503190005 | 61 | 224 | 4.3 | 12.2 | 0.00 | 0.00 | 0.00 | 35 | 1013.6 |
| 20260503184504 | 60 | 239 | 4.3 | 13.0 | 0.00 | 0.00 | 0.00 | 36 | 1013.7 |
| 20260503183005 | 60 | 251 | 4.3 | 13.0 | 0.00 | 0.00 | 0.00 | 39 | 1013.8 |
| 20260503181505 | 60 | 230 | 4.3 | 12.2 | 0.00 | 0.00 | 0.00 | 41 | 1014.0 |
| 20260503180005 | 59 | 270 | 4.3 | 11.3 | 0.00 | 0.00 | 0.00 | 41 | 1014.2 |
| 20260503174504 | 60 | 259 | 4.3 | 13.9 | 0.00 | 0.00 | 0.00 | 40 | 1014.4 |
| 20260503173005 | 59 | 243 | 3.5 | 13.0 | 0.00 | 0.00 | 0.00 | 38 | 1014.4 |
| 20260503071504 | 32 | 237 | 0.0 | 0.9 | 0.00 | 0.06 | 0.00 | 91 | 1015.7 |
| 20260503054503 | 35 | 0 | 0.0 | 0.0 | 0.00 | 0.10 | 0.00 | 85 | 1016.0 |
| 20260503053004 | 36 | 0 | 0.0 | 0.0 | 0.00 | 0.10 | 0.00 | 83 | 1016.1 |
| 20260503051503 | 36 | 0 | 0.0 | 0.0 | 0.00 | 0.11 | 0.00 | 82 | 1016.1 |
| 20260503044504 | 38 | 211 | 0.0 | 2.6 | 0.00 | 0.11 | 0.00 | 78 | 1016.2 |
| 20260503043004 | 39 | 210 | 0.0 | 0.9 | 0.00 | 0.11 | 0.00 | 77 | 1016.2 |
| 20260503041503 | 39 | 203 | 0.0 | 1.7 | 0.00 | 0.11 | 0.00 | 76 | 1016.2 |
| 20260503040006 | 39 | 220 | 0.9 | 1.7 | 0.00 | 0.11 | 0.00 | 76 | 1016.3 |
| 20260503034503 | 39 | 227 | 0.0 | 3.5 | 0.00 | 0.11 | 0.11 | 77 | 1016.3 |
| 20260503033005 | 39 | 216 | 0.0 | 2.6 | 0.00 | 0.11 | 0.11 | 80 | 1016.4 |
| 20260503031504 | 38 | 0 | 0.0 | 0.0 | 0.00 | 0.11 | 0.11 | 83 | 1016.4 |
| 20260503030005 | 39 | 0 | 0.0 | 0.0 | 0.00 | 0.11 | 0.11 | 83 | 1016.6 |
| 20260503024504 | 39 | 0 | 0.0 | 0.0 | 0.00 | 0.11 | 0.11 | 83 | 1016.6 |
| 20260503023005 | 39 | 0 | 0.0 | 0.0 | 0.00 | 0.11 | 0.11 | 81 | 1016.8 |
| 20260503021504 | 39 | 0 | 0.0 | 0.0 | 0.00 | 0.11 | 0.11 | 80 | 1016.8 |
| 20260503020004 | 39 | 0 | 0.0 | 0.0 | 0.00 | 0.11 | 0.11 | 79 | 1016.7 |
| 20260503014504 | 40 | 0 | 0.0 | 0.0 | 0.00 | 0.11 | 0.11 | 78 | 1016.7 |
| 20260503013004 | 40 | 0 | 0.0 | 0.0 | 0.00 | 0.11 | 0.11 | 77 | 1016.6 |
| 20260503011503 | 40 | 0 | 0.0 | 0.0 | 0.00 | 0.11 | 0.11 | 74 | 1016.6 |